sat.trackr.live / text

‹ back to catalog

ONEWEB-0702

NORAD 61608 · 2024-188Q

PAYLOAD ACTIVE UNKNOWN

§ Identity

Operator
Country
UK
Launch date
2024-10-20
Launch site
AFWTR
Launch vehicle
Mass (kg)
RCS (m²)

Purposes: comms

External: N2YO · Heavens-Above · Gunter

§ Orbital elements

Epoch: 2026-05-25T03:07:56.751744Z

Period
109.81 min
Inclination
87.8925°
Eccentricity
0.0000949
Mean motion
13.11415169 rev/d
Perigee alt
1,217.0 km
Apogee alt
1,218.4 km
Semi-major
7,595.8 km
B*
8.3407e-4
RAAN
25.5706°
Arg perigee
108.4230°
Mean anomaly
251.7001°
Rev number
8,146

§ Raw data

ONEWEB-07021 61608U 24188Q   26145.13051796  .00000308  00000+0  83407-3 0  99992 61608  87.8925  25.5706 0000949 108.4230 251.7001 13.11415169 81464

JSON: /api/v1/satellites/61608 · /tle

For live sub-satellite position, see the globe view (requires WebGL).

§ Visibility from observer

Set your observer location to see the next 7 days of passes ≥ 10°. The values pass through the URL so the page stays shareable.

No JS? Fill the form by hand. The geolocation button needs JavaScript.